Regional Weather Roundup
Issued by NWS

Current Version | Previous Version | Text Only | Print | Product List | Glossary On
Versions: 1 2 3 4 5 6 7 8 9 10 11 12 13 14 15 16 17 18 19 20 21 22 23 24 25 26 27 28 29 30 31 32 33 34 35 36 37 38 39 40 41 42 43 44 45 46 47 48 49 50
000
ASUS42 KFFC 260603
RWRGA
WEATHER ROUNDUP FOR GEORGIA
NATIONAL WEATHER SERVICE PEACHTREE CITY GA
200 AM EDT SAT JUL 26 2014

NOTE: "FAIR" INDICATES FEW OR NO CLOUDS BELOW 12,000 FEET WITH NO
SIGNIFICANT WEATHER AND/OR OBSTRUCTIONS TO VISIBILITY.

* = USE WITH CAUTION. THE STATIONS MARKED WITH AN ASTERISK MAY NOT
REPORT WEATHER SUCH AS PRECIPITATION, FOG, OR THUNDER AND ARE NOT
QUALITY CONTROLLED BY NWS.

THE REMARK "TC" DENOTES TEMPERATURE READING IN DEGREES CELSIUS.

GAZ001>058-260700-
NORTH GEORGIA

CITY           SKY/WX    TMP DP  RH WIND       PRES   REMARKS
ATLANTA        PTCLDY    76  66  71 NW3       30.04F
6HR MIN TEMP:  74; 6HR MAX TEMP:  85;

ATHENS         PTCLDY    74  70  87 CALM      30.04F
6HR MIN TEMP:  74; 6HR MAX TEMP:  86;

CHAMBLEE       PTCLDY    70  66  87 CALM      30.05F
6HR MIN TEMP:  70; 6HR MAX TEMP:  84;

PEACHTREE CITY CLEAR     71  69  93 CALM      30.05S FOG
6HR MIN TEMP:  71; 6HR MAX TEMP:  83;

ROME           CLEAR     68  67  96 NW3       30.04R
6HR MIN TEMP:  67; 6HR MAX TEMP:  84;

WEST ATLANTA   CLEAR     70  67  90 CALM      30.04F
6HR MIN TEMP:  70; 6HR MAX TEMP:  85; 6HR PCP: TRACE;

GAINESVILLE    PTCLDY    71  67  87 CALM      30.08F
6HR MIN TEMP:  70; 6HR MAX TEMP:  82;

CARTERSVILLE   CLEAR     64  62  93 CALM      30.04F
6HR MIN TEMP:  64; 6HR MAX TEMP:  83;



CITY           SKY/WX    TMP DP  RH WIND       PRES   REMARKS
DALTON*        PTCLDY    66  66 100 CALM      30.05S
MARIETTA       PTCLDY    71  67  88 CALM      30.05F
$$

GAZ059>098-102>109-260700-
CENTRAL GEORGIA

CITY           SKY/WX    TMP DP  RH WIND       PRES   REMARKS
AUGUSTA-BUSH   PTCLDY    73  71  93 CALM      30.01F
6HR MIN TEMP:  71; 6HR MAX TEMP:  77; 6HR PCP:  0.98;

AUGUSTA-DANIEL PTCLDY    74  72  93 S3        30.03S
6HR MIN TEMP:  74; 6HR MAX TEMP:  84; 6HR PCP: TRACE;

COLUMBUS       CLEAR     77  73  87 CALM      30.01F
6HR MIN TEMP:  77; 6HR MAX TEMP:  87;

MACON          CLEAR     73  73 100 CALM      30.01F
6HR MIN TEMP:  73; 6HR MAX TEMP:  77;

ROBINS AFB     CLEAR     74  72  95 SE2       30.01S


CITY           SKY/WX    TMP DP  RH WIND       PRES   REMARKS
LAGRANGE*      CLEAR     74  74  98 CALM      30.04S
SYLVANIA*      CLOUDY    75  75 100 CALM      30.01F
MILLEDGEVILLE* PTCLDY    59  59 100 CALM      30.01F
$$

GAZ099>101-110>166-260700-
SOUTH GEORGIA

CITY           SKY/WX    TMP DP  RH WIND       PRES   REMARKS
SAVANNAH       CLOUDY    77  73  87 NE5       30.03F
6HR MIN TEMP:  77; 6HR MAX TEMP:  87; 6HR PCP:  0.01;

VALDOSTA       PTCLDY    79  73  82 CALM      30.04S
6HR MIN TEMP:  79; 6HR MAX TEMP:  84; 6HR PCP: TRACE;

ALMA           MOCLDY    77  73  87 CALM      30.02F
6HR MIN TEMP:  77; 6HR MAX TEMP:  87;

ST SIMONS      PTCLDY    79  74  84 S8        30.03F
6HR MIN TEMP:  79; 6HR MAX TEMP:  84;

FT STEWART     CLOUDY    77  73  87 S2        30.00F
ALBANY         MOCLDY    77  75  93 SE3       30.04S
HUNTER AFB     CLOUDY    76  74  92 VRB3      30.00F
MOODY AFB      PTCLDY    79  79 100 SW5       30.03R FOG
BRUNSWICK      PTCLDY    79  72  78 CALM      30.04F


CITY           SKY/WX    TMP DP  RH WIND       PRES   REMARKS
BAINBRIDGE*    CLEAR     79  77  94 S5        30.02F
MOULTRIE*      MOCLDY    77  75  94 S3        30.04S
VIDALIA*         N/A     79  73  83 CALM      30.02F
WAYCROSS*      MOCLDY    80  77  91 SW6       30.02F
DOUGLAS*       MOCLDY    79  73  83 SW6       30.04F
$$



USA.gov is the U.S. government's official web portal to all federal, state and local government web resources and services.